Year,Month,Day,Hour,Minute,Value (Times are PST for temperature in C)
2005,07,22,00,00,14.50
2005,07,22,00,01,14.50
2005,07,22,00,02,14.60
2005,07,22,00,03,14.60
2005,07,22,00,04,14.60
2005,07,22,00,05,14.60
2005,07,22,00,06,14.70
2005,07,22,00,07,14.70
2005,07,22,00,08,14.70
2005,07,22,00,09,14.80
2005,07,22,00,10,14.80
2005,07,22,00,11,14.80
2005,07,22,00,12,14.80
2005,07,22,00,13,14.80
2005,07,22,00,14,14.90
2005,07,22,00,15,14.90
2005,07,22,00,16,14.90
2005,07,22,00,17,14.90
2005,07,22,00,18,14.90
2005,07,22,00,19,15.00
2005,07,22,00,20,15.00
2005,07,22,00,21,15.00
2005,07,22,00,22,15.10
2005,07,22,00,23,15.10
2005,07,22,00,24,15.10
2005,07,22,00,25,15.20
2005,07,22,00,26,15.20
2005,07,22,00,27,15.20
2005,07,22,00,28,15.20
2005,07,22,00,29,15.20
2005,07,22,00,30,15.20
2005,07,22,00,31,15.20
2005,07,22,00,32,15.20
2005,07,22,00,33,15.20
2005,07,22,00,34,15.20
2005,07,22,00,35,15.20
2005,07,22,00,36,15.10
2005,07,22,00,37,15.10
2005,07,22,00,38,15.10
2005,07,22,00,39,15.10
2005,07,22,00,40,15.10
2005,07,22,00,41,15.10
2005,07,22,00,42,15.10
2005,07,22,00,43,15.10
2005,07,22,00,44,15.10
2005,07,22,00,45,15.10
2005,07,22,00,46,15.10
2005,07,22,00,47,15.10
2005,07,22,00,48,15.10
2005,07,22,00,49,15.10
2005,07,22,00,50,15.10
2005,07,22,00,51,15.10
2005,07,22,00,52,15.10
2005,07,22,00,53,15.10
2005,07,22,00,54,15.10
2005,07,22,00,55,15.10
2005,07,22,00,56,15.20
2005,07,22,00,57,15.20
2005,07,22,00,58,15.20
2005,07,22,00,59,15.20
2005,07,22,01,00,15.20
2005,07,22,01,01,15.20
2005,07,22,01,02,15.20
2005,07,22,01,03,15.10
2005,07,22,01,04,15.10
2005,07,22,01,05,15.10
2005,07,22,01,06,15.10
2005,07,22,01,07,15.20
2005,07,22,01,08,15.20
2005,07,22,01,09,15.20
2005,07,22,01,10,15.10
2005,07,22,01,11,15.10
2005,07,22,01,12,15.10
2005,07,22,01,13,15.10
2005,07,22,01,14,15.10
2005,07,22,01,15,15.10
2005,07,22,01,16,15.00
2005,07,22,01,17,15.00
2005,07,22,01,18,15.00
2005,07,22,01,19,14.90
2005,07,22,01,20,14.90
2005,07,22,01,21,14.90
2005,07,22,01,22,14.80
2005,07,22,01,23,14.80
2005,07,22,01,24,14.80
2005,07,22,01,25,14.80
2005,07,22,01,26,14.80
2005,07,22,01,27,14.70
2005,07,22,01,28,14.70
2005,07,22,01,29,14.70
2005,07,22,01,30,14.70
2005,07,22,01,31,14.60
2005,07,22,01,32,14.60
2005,07,22,01,33,14.60
2005,07,22,01,34,14.60
2005,07,22,01,35,14.50
2005,07,22,01,36,14.50
2005,07,22,01,37,14.50
2005,07,22,01,38,14.40
2005,07,22,01,39,14.40
2005,07,22,01,40,14.40
2005,07,22,01,41,14.30
2005,07,22,01,42,14.30
2005,07,22,01,43,14.20
2005,07,22,01,44,14.20
2005,07,22,01,45,14.20
2005,07,22,01,46,14.20
2005,07,22,01,47,14.20
2005,07,22,01,48,14.10
2005,07,22,01,49,14.10
2005,07,22,01,50,14.10
2005,07,22,01,51,14.10
2005,07,22,01,52,14.10
2005,07,22,01,53,14.10
2005,07,22,01,54,14.10
2005,07,22,01,55,14.10
2005,07,22,01,56,14.10
2005,07,22,01,57,14.10
2005,07,22,01,58,14.10
2005,07,22,01,59,14.10
2005,07,22,02,00,14.10
2005,07,22,02,01,14.10
2005,07,22,02,02,14.00
2005,07,22,02,03,14.00
2005,07,22,02,04,14.00
2005,07,22,02,05,14.00
2005,07,22,02,06,13.90
2005,07,22,02,07,13.90
2005,07,22,02,08,13.90
2005,07,22,02,09,13.90
2005,07,22,02,10,13.90
2005,07,22,02,11,13.80
2005,07,22,02,12,13.80
2005,07,22,02,13,13.80
2005,07,22,02,14,13.80
2005,07,22,02,15,13.80
2005,07,22,02,16,13.80
2005,07,22,02,17,13.80
2005,07,22,02,18,13.70
2005,07,22,02,19,13.80
2005,07,22,02,20,13.80
2005,07,22,02,21,13.80
2005,07,22,02,22,13.80
2005,07,22,02,23,13.80
2005,07,22,02,24,13.80
2005,07,22,02,25,13.80
2005,07,22,02,26,13.80
2005,07,22,02,27,13.90
2005,07,22,02,28,13.90
2005,07,22,02,29,13.90
2005,07,22,02,30,13.90
2005,07,22,02,31,13.90
2005,07,22,02,32,14.00
2005,07,22,02,33,14.00
2005,07,22,02,34,14.00
2005,07,22,02,35,14.00
2005,07,22,02,36,14.10
2005,07,22,02,37,14.10
2005,07,22,02,38,14.10
2005,07,22,02,39,14.10
2005,07,22,02,40,14.10
2005,07,22,02,41,14.10
2005,07,22,02,42,14.10
2005,07,22,02,43,14.20
2005,07,22,02,44,14.20
2005,07,22,02,45,14.20
2005,07,22,02,46,14.20
2005,07,22,02,47,14.20
2005,07,22,02,48,14.20
2005,07,22,02,49,14.30
2005,07,22,02,50,14.50
2005,07,22,02,51,14.60
2005,07,22,02,52,14.70
2005,07,22,02,53,14.80
2005,07,22,02,54,14.90
2005,07,22,02,55,14.90
2005,07,22,02,56,14.90
2005,07,22,02,57,15.00
2005,07,22,02,58,15.00
2005,07,22,02,59,15.00
2005,07,22,03,00,15.10
2005,07,22,03,01,15.10
2005,07,22,03,02,15.20
2005,07,22,03,03,15.20
2005,07,22,03,04,15.30
2005,07,22,03,05,15.30
2005,07,22,03,06,15.20
2005,07,22,03,07,15.20
2005,07,22,03,08,15.20
2005,07,22,03,09,15.20
2005,07,22,03,10,15.10
2005,07,22,03,11,15.10
2005,07,22,03,12,15.10
2005,07,22,03,13,15.10
2005,07,22,03,14,15.10
2005,07,22,03,15,15.10
2005,07,22,03,16,15.20
2005,07,22,03,17,15.20
2005,07,22,03,18,15.20
2005,07,22,03,19,15.20
2005,07,22,03,20,15.20
2005,07,22,03,21,15.10
2005,07,22,03,22,15.10
2005,07,22,03,23,15.10
2005,07,22,03,24,15.10
2005,07,22,03,25,15.10
2005,07,22,03,26,15.10
2005,07,22,03,27,15.10
2005,07,22,03,28,15.10
2005,07,22,03,29,15.10
2005,07,22,03,30,15.10
2005,07,22,03,31,15.00
2005,07,22,03,32,15.00
2005,07,22,03,33,15.00
2005,07,22,03,34,15.00
2005,07,22,03,35,15.00
2005,07,22,03,36,15.00
2005,07,22,03,37,14.90
2005,07,22,03,38,14.90
2005,07,22,03,39,14.90
2005,07,22,03,40,14.90
2005,07,22,03,41,14.90
2005,07,22,03,42,14.90
2005,07,22,03,43,14.90
2005,07,22,03,44,15.00
2005,07,22,03,45,15.00
2005,07,22,03,46,15.00
2005,07,22,03,47,15.00
2005,07,22,03,48,15.00
2005,07,22,03,49,15.10
2005,07,22,03,50,15.10
2005,07,22,03,51,15.10
2005,07,22,03,52,15.20
2005,07,22,03,53,15.30
2005,07,22,03,54,15.30
2005,07,22,03,55,15.30
2005,07,22,03,56,15.30
2005,07,22,03,57,15.30
2005,07,22,03,58,15.30
2005,07,22,03,59,15.30
2005,07,22,04,00,15.30
2005,07,22,04,01,15.30
2005,07,22,04,02,15.30
2005,07,22,04,03,15.30
2005,07,22,04,04,15.30
2005,07,22,04,05,15.30
2005,07,22,04,06,15.30
2005,07,22,04,07,15.30
2005,07,22,04,08,15.30
2005,07,22,04,09,15.30
2005,07,22,04,10,15.30
2005,07,22,04,11,15.30
2005,07,22,04,12,15.30
2005,07,22,04,13,15.30
2005,07,22,04,14,15.40
2005,07,22,04,15,15.40
2005,07,22,04,16,15.50
2005,07,22,04,17,15.50
2005,07,22,04,18,15.50
2005,07,22,04,19,15.50
2005,07,22,04,20,15.50
2005,07,22,04,21,15.50
2005,07,22,04,22,15.50
2005,07,22,04,23,15.50
2005,07,22,04,24,15.40
2005,07,22,04,25,15.40
2005,07,22,04,26,15.40
2005,07,22,04,27,15.30
2005,07,22,04,28,15.30
2005,07,22,04,29,15.30
2005,07,22,04,30,15.30
2005,07,22,04,31,15.30
2005,07,22,04,32,15.30
2005,07,22,04,33,15.30
2005,07,22,04,34,15.30
2005,07,22,04,35,15.30
2005,07,22,04,36,15.30
2005,07,22,04,37,15.30
2005,07,22,04,38,15.30
2005,07,22,04,39,15.30
2005,07,22,04,40,15.30
2005,07,22,04,41,15.30
2005,07,22,04,42,15.30
2005,07,22,04,43,15.30
2005,07,22,04,44,15.30
2005,07,22,04,45,15.20
2005,07,22,04,46,15.20
2005,07,22,04,47,15.20
2005,07,22,04,48,15.20
2005,07,22,04,49,15.10
2005,07,22,04,50,15.10
2005,07,22,04,51,15.00
2005,07,22,04,52,14.90
2005,07,22,04,53,14.80
2005,07,22,04,54,14.80
2005,07,22,04,55,14.70
2005,07,22,04,56,14.70
2005,07,22,04,57,14.60
2005,07,22,04,58,14.50
2005,07,22,04,59,14.50
2005,07,22,05,00,14.40
2005,07,22,05,01,14.20
2005,07,22,05,02,14.20
2005,07,22,05,03,14.10
2005,07,22,05,04,13.90
2005,07,22,05,05,13.90
2005,07,22,05,06,13.90
2005,07,22,05,07,13.80
2005,07,22,05,08,13.70
2005,07,22,05,09,13.60
2005,07,22,05,10,13.60
2005,07,22,05,11,13.50
2005,07,22,05,12,13.40
2005,07,22,05,13,13.30
2005,07,22,05,14,13.30
2005,07,22,05,15,13.30
2005,07,22,05,16,13.20
2005,07,22,05,17,13.10
2005,07,22,05,18,13.10
2005,07,22,05,19,13.10
2005,07,22,05,20,13.00
2005,07,22,05,21,12.90
2005,07,22,05,22,12.90
2005,07,22,05,23,12.80
2005,07,22,05,24,12.80
2005,07,22,05,25,12.80
2005,07,22,05,26,12.80
2005,07,22,05,27,12.80
2005,07,22,05,28,12.80
2005,07,22,05,29,12.80
2005,07,22,05,30,12.80
2005,07,22,05,31,12.80
2005,07,22,05,32,12.70
2005,07,22,05,33,12.70
2005,07,22,05,34,12.70
2005,07,22,05,35,12.70
2005,07,22,05,36,12.70
2005,07,22,05,37,12.60
2005,07,22,05,38,12.60
2005,07,22,05,39,12.60
2005,07,22,05,40,12.60
2005,07,22,05,41,12.60
2005,07,22,05,42,12.60
2005,07,22,05,43,12.60
2005,07,22,05,44,12.60
2005,07,22,05,45,12.60
2005,07,22,05,46,12.60
2005,07,22,05,47,12.60
2005,07,22,05,48,12.60
2005,07,22,05,49,12.70
2005,07,22,05,50,12.70
2005,07,22,05,51,12.70
2005,07,22,05,52,12.70
2005,07,22,05,53,12.70
2005,07,22,05,54,12.70
2005,07,22,05,55,12.80
2005,07,22,05,56,12.80
2005,07,22,05,57,12.80
2005,07,22,05,58,12.90
2005,07,22,05,59,12.90
2005,07,22,06,00,12.90
2005,07,22,06,01,13.00
2005,07,22,06,02,13.00
2005,07,22,06,03,13.10
2005,07,22,06,04,13.10
2005,07,22,06,05,13.10
2005,07,22,06,06,13.20
2005,07,22,06,07,13.30
2005,07,22,06,08,13.30
2005,07,22,06,09,13.40
2005,07,22,06,10,13.50
2005,07,22,06,11,13.50
2005,07,22,06,12,13.60
2005,07,22,06,13,13.70
2005,07,22,06,14,13.70
2005,07,22,06,15,13.80
2005,07,22,06,16,13.90
2005,07,22,06,17,13.90
2005,07,22,06,18,14.00
2005,07,22,06,19,14.00
2005,07,22,06,20,14.10
2005,07,22,06,21,14.20
2005,07,22,06,22,14.20
2005,07,22,06,23,14.20
2005,07,22,06,24,14.20
2005,07,22,06,25,14.20
2005,07,22,06,26,14.20
2005,07,22,06,27,14.20
2005,07,22,06,28,14.20
2005,07,22,06,29,14.20
2005,07,22,06,30,14.20
2005,07,22,06,31,14.10
2005,07,22,06,32,14.00
2005,07,22,06,33,13.90
2005,07,22,06,34,13.90
2005,07,22,06,35,13.70
2005,07,22,06,36,13.70
2005,07,22,06,37,13.60
2005,07,22,06,38,13.60
2005,07,22,06,39,13.50
2005,07,22,06,40,13.50
2005,07,22,06,41,13.50
2005,07,22,06,42,13.50
2005,07,22,06,43,13.50
2005,07,22,06,44,13.50
2005,07,22,06,45,13.60
2005,07,22,06,46,13.60
2005,07,22,06,47,13.60
2005,07,22,06,48,13.60
2005,07,22,06,49,13.60
2005,07,22,06,50,13.60
2005,07,22,06,51,13.60
2005,07,22,06,52,13.60
2005,07,22,06,53,13.60
2005,07,22,06,54,13.60
2005,07,22,06,55,13.60
2005,07,22,06,56,13.60
2005,07,22,06,57,13.60
2005,07,22,06,58,13.60
2005,07,22,06,59,13.60
2005,07,22,07,00,13.60
2005,07,22,07,01,13.60
2005,07,22,07,02,13.60
2005,07,22,07,03,13.60
2005,07,22,07,04,13.50
2005,07,22,07,05,13.50
2005,07,22,07,06,13.50
2005,07,22,07,07,13.50
2005,07,22,07,08,13.50
2005,07,22,07,09,13.60
2005,07,22,07,10,13.70
2005,07,22,07,11,13.70
2005,07,22,07,12,13.80
2005,07,22,07,13,13.90
2005,07,22,07,14,13.90
2005,07,22,07,15,13.90
2005,07,22,07,16,13.90
2005,07,22,07,17,14.00
2005,07,22,07,18,14.00
2005,07,22,07,19,14.00
2005,07,22,07,20,14.00
2005,07,22,07,21,14.10
2005,07,22,07,22,14.10
2005,07,22,07,23,14.10
2005,07,22,07,24,14.10
2005,07,22,07,25,14.20
2005,07,22,07,26,14.20
2005,07,22,07,27,14.20
2005,07,22,07,28,14.20
2005,07,22,07,29,14.20
2005,07,22,07,30,14.20
2005,07,22,07,31,14.20
2005,07,22,07,32,14.40
2005,07,22,07,33,14.50
2005,07,22,07,34,14.60
2005,07,22,07,35,14.60
2005,07,22,07,36,14.70
2005,07,22,07,37,14.70
2005,07,22,07,38,14.80
2005,07,22,07,39,14.80
2005,07,22,07,40,14.80
2005,07,22,07,41,14.80
2005,07,22,07,42,14.80
2005,07,22,07,43,14.80
2005,07,22,07,44,14.80
2005,07,22,07,45,14.80
2005,07,22,07,46,14.90
2005,07,22,07,47,14.90
2005,07,22,07,48,14.90
2005,07,22,07,49,14.90
2005,07,22,07,50,14.80
2005,07,22,07,51,14.80
2005,07,22,07,52,14.80
2005,07,22,07,53,14.80
2005,07,22,07,54,14.80
2005,07,22,07,55,14.80
2005,07,22,07,56,14.90
2005,07,22,07,57,14.90
2005,07,22,07,58,14.90
2005,07,22,07,59,15.00
2005,07,22,08,00,15.00
2005,07,22,08,01,15.00
2005,07,22,08,02,15.10
2005,07,22,08,03,15.10
2005,07,22,08,04,15.10
2005,07,22,08,05,15.20
2005,07,22,08,06,15.20
2005,07,22,08,07,15.20
2005,07,22,08,08,15.30
2005,07,22,08,09,15.30
2005,07,22,08,10,15.40
2005,07,22,08,11,15.40
2005,07,22,08,12,15.30
2005,07,22,08,13,15.30
2005,07,22,08,14,15.30
2005,07,22,08,15,15.20
2005,07,22,08,16,15.00
2005,07,22,08,17,14.90
2005,07,22,08,18,14.80
2005,07,22,08,19,14.70
2005,07,22,08,20,14.60
2005,07,22,08,21,14.40
2005,07,22,08,22,14.30
2005,07,22,08,23,14.20
2005,07,22,08,24,14.20
2005,07,22,08,25,14.20
2005,07,22,08,26,14.20
2005,07,22,08,27,14.20
2005,07,22,08,28,14.20
2005,07,22,08,29,14.20
2005,07,22,08,30,14.20
2005,07,22,08,31,14.20
2005,07,22,08,32,14.20
2005,07,22,08,33,14.20
2005,07,22,08,34,14.40
2005,07,22,08,35,14.50
2005,07,22,08,36,14.60
2005,07,22,08,37,14.60
2005,07,22,08,38,14.70
2005,07,22,08,39,14.80
2005,07,22,08,40,14.80
2005,07,22,08,41,14.90
2005,07,22,08,42,14.90
2005,07,22,08,43,15.00
2005,07,22,08,44,15.00
2005,07,22,08,45,15.00
2005,07,22,08,46,15.10
2005,07,22,08,47,15.10
2005,07,22,08,48,15.20
2005,07,22,08,49,15.20
2005,07,22,08,50,15.20
2005,07,22,08,51,15.30
2005,07,22,08,52,15.30
2005,07,22,08,53,15.50
2005,07,22,08,54,15.50
2005,07,22,08,55,15.60
2005,07,22,08,56,15.70
2005,07,22,08,57,15.80
2005,07,22,08,58,15.80
2005,07,22,08,59,15.90
2005,07,22,09,00,16.00
2005,07,22,09,01,16.10
2005,07,22,09,02,16.10
2005,07,22,09,03,16.10
2005,07,22,09,04,16.10
2005,07,22,09,05,16.10
2005,07,22,09,06,16.00
2005,07,22,09,07,15.90
2005,07,22,09,08,15.90
2005,07,22,09,09,15.90
2005,07,22,09,10,15.80
2005,07,22,09,11,15.70
2005,07,22,09,12,15.60
2005,07,22,09,13,15.50
2005,07,22,09,14,15.50
2005,07,22,09,15,15.40
2005,07,22,09,16,15.30
2005,07,22,09,17,15.30
2005,07,22,09,18,15.30
2005,07,22,09,19,15.40
2005,07,22,09,20,15.40
2005,07,22,09,21,15.50
2005,07,22,09,22,15.60
2005,07,22,09,23,15.60
2005,07,22,09,24,15.70
2005,07,22,09,25,15.80
2005,07,22,09,26,15.90
2005,07,22,09,27,15.90
2005,07,22,09,28,16.10
2005,07,22,09,29,16.20
2005,07,22,09,30,16.30
2005,07,22,09,31,16.40
2005,07,22,09,32,16.60
2005,07,22,09,33,16.70
2005,07,22,09,34,16.90
2005,07,22,09,35,17.00
2005,07,22,09,36,17.10
2005,07,22,09,37,17.20
2005,07,22,09,38,17.30
2005,07,22,09,39,17.30
2005,07,22,09,40,17.40
2005,07,22,09,41,17.50
2005,07,22,09,42,17.50
2005,07,22,09,43,17.50
2005,07,22,09,44,17.50
2005,07,22,09,45,17.50
2005,07,22,09,46,17.60
2005,07,22,09,47,17.60
2005,07,22,09,48,17.60
2005,07,22,09,49,17.50
2005,07,22,09,50,17.50
2005,07,22,09,51,17.40
2005,07,22,09,52,17.40
2005,07,22,09,53,17.40
2005,07,22,09,54,17.40
2005,07,22,09,55,17.40
2005,07,22,09,56,17.50
2005,07,22,09,57,17.50
2005,07,22,09,58,17.60
2005,07,22,09,59,17.60
2005,07,22,10,00,17.70
2005,07,22,10,01,17.80
2005,07,22,10,02,17.80
2005,07,22,10,03,17.90
2005,07,22,10,04,18.00
2005,07,22,10,05,18.10
2005,07,22,10,06,18.20
2005,07,22,10,07,18.20
2005,07,22,10,08,18.20
2005,07,22,10,09,18.20
2005,07,22,10,10,18.20
2005,07,22,10,11,18.30
2005,07,22,10,12,18.30
2005,07,22,10,13,18.40
2005,07,22,10,14,18.50
2005,07,22,10,15,18.50
2005,07,22,10,16,18.50
2005,07,22,10,17,18.60
2005,07,22,10,18,18.50
2005,07,22,10,19,18.40
2005,07,22,10,20,18.30
2005,07,22,10,21,18.30
2005,07,22,10,22,18.30
2005,07,22,10,23,18.20
2005,07,22,10,24,18.10
2005,07,22,10,25,18.10
2005,07,22,10,26,18.10
2005,07,22,10,27,18.20
2005,07,22,10,28,18.20
2005,07,22,10,29,18.00
2005,07,22,10,30,17.90
2005,07,22,10,31,17.80
2005,07,22,10,32,17.70
2005,07,22,10,33,17.70
2005,07,22,10,34,17.60
2005,07,22,10,35,17.60
2005,07,22,10,36,17.60
2005,07,22,10,37,17.60
2005,07,22,10,38,17.70
2005,07,22,10,39,17.70
2005,07,22,10,40,17.70
2005,07,22,10,41,17.70
2005,07,22,10,42,17.70
2005,07,22,10,43,17.70
2005,07,22,10,44,17.70
2005,07,22,10,45,17.70
2005,07,22,10,46,17.60
2005,07,22,10,47,17.50
2005,07,22,10,48,17.50
2005,07,22,10,49,17.50
2005,07,22,10,50,17.40
2005,07,22,10,51,17.40
2005,07,22,10,52,17.30
2005,07,22,10,53,17.30
2005,07,22,10,54,17.30
2005,07,22,10,55,17.30
2005,07,22,10,56,17.30
2005,07,22,10,57,17.30
2005,07,22,10,58,17.30
2005,07,22,10,59,17.30
2005,07,22,11,00,17.30
2005,07,22,11,01,17.40
2005,07,22,11,02,17.50
2005,07,22,11,03,17.50
2005,07,22,11,04,17.50
2005,07,22,11,05,17.40
2005,07,22,11,06,17.30
2005,07,22,11,07,17.30
2005,07,22,11,08,17.30
2005,07,22,11,09,17.00
2005,07,22,11,10,17.00
2005,07,22,11,11,16.90
2005,07,22,11,12,16.90
2005,07,22,11,13,17.00
2005,07,22,11,14,17.00
2005,07,22,11,15,17.00
2005,07,22,11,16,17.00
2005,07,22,11,17,17.10
2005,07,22,11,18,17.10
2005,07,22,11,19,17.10
2005,07,22,11,20,17.20
2005,07,22,11,21,17.20
2005,07,22,11,22,17.20
2005,07,22,11,23,17.10
2005,07,22,11,24,17.10
2005,07,22,11,25,17.10
2005,07,22,11,26,17.10
2005,07,22,11,27,17.00
2005,07,22,11,28,17.00
2005,07,22,11,29,17.00
2005,07,22,11,30,17.00
2005,07,22,11,31,17.00
2005,07,22,11,32,17.00
2005,07,22,11,33,16.90
2005,07,22,11,34,16.90
2005,07,22,11,35,17.00
2005,07,22,11,36,17.00
2005,07,22,11,37,17.00
2005,07,22,11,38,16.90
2005,07,22,11,39,16.90
2005,07,22,11,40,16.90
2005,07,22,11,41,16.80
2005,07,22,11,42,16.70
2005,07,22,11,43,16.70
2005,07,22,11,44,16.60
2005,07,22,11,45,16.60
2005,07,22,11,46,16.60
2005,07,22,11,47,16.50
2005,07,22,11,48,16.40
2005,07,22,11,49,16.40
2005,07,22,11,50,16.50
2005,07,22,11,51,16.60
2005,07,22,11,52,16.60
2005,07,22,11,53,16.60
2005,07,22,11,54,16.70
2005,07,22,11,55,16.70
2005,07,22,11,56,16.70
2005,07,22,11,57,16.70
2005,07,22,11,58,16.80
2005,07,22,11,59,16.80
2005,07,22,12,00,16.80
2005,07,22,12,01,16.80
2005,07,22,12,02,16.80
2005,07,22,12,03,16.70
2005,07,22,12,04,16.70
2005,07,22,12,05,16.70
2005,07,22,12,06,16.80
2005,07,22,12,07,16.90
2005,07,22,12,08,17.00
2005,07,22,12,09,17.10
2005,07,22,12,10,17.40
2005,07,22,12,11,17.50
2005,07,22,12,12,17.60
2005,07,22,12,13,17.60
2005,07,22,12,14,17.50
2005,07,22,12,15,17.50
2005,07,22,12,16,17.60
2005,07,22,12,17,17.70
2005,07,22,12,18,17.70
2005,07,22,12,19,17.80
2005,07,22,12,20,17.90
2005,07,22,12,21,17.90
2005,07,22,12,22,18.00
2005,07,22,12,23,18.10
2005,07,22,12,24,18.20
2005,07,22,12,25,18.30
2005,07,22,12,26,18.40
2005,07,22,12,27,18.40
2005,07,22,12,28,18.50
2005,07,22,12,29,18.40
2005,07,22,12,30,18.30
2005,07,22,12,31,17.90
2005,07,22,12,32,17.70
2005,07,22,12,33,17.50
2005,07,22,12,34,17.40
2005,07,22,12,35,17.30
2005,07,22,12,36,17.10
2005,07,22,12,37,17.10
2005,07,22,12,38,17.10
2005,07,22,12,39,17.20
2005,07,22,12,40,17.20
2005,07,22,12,41,17.30
2005,07,22,12,42,17.30
2005,07,22,12,43,17.30
2005,07,22,12,44,17.30
2005,07,22,12,45,17.30
2005,07,22,12,46,17.30
2005,07,22,12,47,17.30
2005,07,22,12,48,17.30
2005,07,22,12,49,17.40
2005,07,22,12,50,17.50
2005,07,22,12,51,17.50
2005,07,22,12,52,17.40
2005,07,22,12,53,17.40
2005,07,22,12,54,17.40
2005,07,22,12,55,17.30
2005,07,22,12,56,17.20
2005,07,22,12,57,17.20
2005,07,22,12,58,17.20
2005,07,22,12,59,17.10
2005,07,22,13,00,17.10
2005,07,22,13,01,17.00
2005,07,22,13,02,17.00
2005,07,22,13,03,17.00
2005,07,22,13,04,17.00
2005,07,22,13,05,17.00
2005,07,22,13,06,17.00
2005,07,22,13,07,17.00
2005,07,22,13,08,17.00
2005,07,22,13,09,17.10
2005,07,22,13,10,17.00
2005,07,22,13,11,16.90
2005,07,22,13,12,16.80
2005,07,22,13,13,16.70
2005,07,22,13,14,16.50
2005,07,22,13,15,16.40
2005,07,22,13,16,16.30
2005,07,22,13,17,16.30
2005,07,22,13,18,16.30
2005,07,22,13,19,16.30
2005,07,22,13,20,16.30
2005,07,22,13,21,16.40
2005,07,22,13,22,16.40
2005,07,22,13,23,16.40
2005,07,22,13,24,16.40
2005,07,22,13,25,16.50
2005,07,22,13,26,16.60
2005,07,22,13,27,16.70
2005,07,22,13,28,16.80
2005,07,22,13,29,16.90
2005,07,22,13,30,17.00
2005,07,22,13,31,17.00
2005,07,22,13,32,16.90
2005,07,22,13,33,17.00
2005,07,22,13,34,17.00
2005,07,22,13,35,17.00
2005,07,22,13,36,17.10
2005,07,22,13,37,17.20
2005,07,22,13,38,17.40
2005,07,22,13,39,17.60
2005,07,22,13,40,17.70
2005,07,22,13,41,17.70
2005,07,22,13,42,17.60
2005,07,22,13,43,17.30
2005,07,22,13,44,17.20
2005,07,22,13,45,17.30
2005,07,22,13,46,17.20
2005,07,22,13,47,16.90
2005,07,22,13,48,16.80
2005,07,22,13,49,16.70
2005,07,22,13,50,16.50
2005,07,22,13,51,16.20
2005,07,22,13,52,16.00
2005,07,22,13,53,15.80
2005,07,22,13,54,15.70
2005,07,22,13,55,15.50
2005,07,22,13,56,15.50
2005,07,22,13,57,15.60
2005,07,22,13,58,15.70
2005,07,22,13,59,16.00
2005,07,22,14,00,16.20
2005,07,22,14,01,16.30
2005,07,22,14,02,16.30
2005,07,22,14,03,16.30
2005,07,22,14,04,16.30
2005,07,22,14,05,16.40
2005,07,22,14,06,16.70
2005,07,22,14,07,16.90
2005,07,22,14,08,17.10
2005,07,22,14,09,17.30
2005,07,22,14,10,17.50
2005,07,22,14,11,17.70
2005,07,22,14,12,17.90
2005,07,22,14,13,17.80
2005,07,22,14,14,17.80
2005,07,22,14,15,17.80
2005,07,22,14,16,17.70
2005,07,22,14,17,17.50
2005,07,22,14,18,17.30
2005,07,22,14,19,17.20
2005,07,22,14,20,17.10
2005,07,22,14,21,17.20
2005,07,22,14,22,17.10
2005,07,22,14,23,17.00
2005,07,22,14,24,17.00
2005,07,22,14,25,16.90
2005,07,22,14,26,16.80
2005,07,22,14,27,16.70
2005,07,22,14,28,16.70
2005,07,22,14,29,16.70
2005,07,22,14,30,16.80
2005,07,22,14,31,16.80
2005,07,22,14,32,16.80
2005,07,22,14,33,16.70
2005,07,22,14,34,16.50
2005,07,22,14,35,16.30
2005,07,22,14,36,16.20
2005,07,22,14,37,16.20
2005,07,22,14,38,16.30
2005,07,22,14,39,16.40
2005,07,22,14,40,16.40
2005,07,22,14,41,16.20
2005,07,22,14,42,16.20
2005,07,22,14,43,16.30
2005,07,22,14,44,16.30
2005,07,22,14,45,16.40
2005,07,22,14,46,16.40
2005,07,22,14,47,16.40
2005,07,22,14,48,16.40
2005,07,22,14,49,16.30
2005,07,22,14,50,16.30
2005,07,22,14,51,16.30
2005,07,22,14,52,16.30
2005,07,22,14,53,16.20
2005,07,22,14,54,16.20
2005,07,22,14,55,16.20
2005,07,22,14,56,16.20
2005,07,22,14,57,16.20
2005,07,22,14,58,16.20
2005,07,22,14,59,16.20
2005,07,22,15,00,16.30
2005,07,22,15,01,16.40
2005,07,22,15,02,16.40
2005,07,22,15,03,16.40
2005,07,22,15,04,16.50
2005,07,22,15,05,16.60
2005,07,22,15,06,16.70
2005,07,22,15,07,16.70
2005,07,22,15,08,16.70
2005,07,22,15,09,16.70
2005,07,22,15,10,16.90
2005,07,22,15,11,17.00
2005,07,22,15,12,17.20
2005,07,22,15,13,17.50
2005,07,22,15,14,17.90
2005,07,22,15,15,18.30
2005,07,22,15,16,18.60
2005,07,22,15,17,18.80
2005,07,22,15,18,18.90
2005,07,22,15,19,19.10
2005,07,22,15,20,19.40
2005,07,22,15,21,19.50
2005,07,22,15,22,19.70
2005,07,22,15,23,19.90
2005,07,22,15,24,20.00
2005,07,22,15,25,20.10
2005,07,22,15,26,20.10
2005,07,22,15,27,20.10
2005,07,22,15,28,20.10
2005,07,22,15,29,20.00
2005,07,22,15,30,19.90
2005,07,22,15,31,19.90
2005,07,22,15,32,19.70
2005,07,22,15,33,19.60
2005,07,22,15,34,19.50
2005,07,22,15,35,19.50
2005,07,22,15,36,19.50
2005,07,22,15,37,19.50
2005,07,22,15,38,19.50
2005,07,22,15,39,19.90
2005,07,22,15,40,20.00
2005,07,22,15,41,20.20
2005,07,22,15,42,20.20
2005,07,22,15,43,20.20
2005,07,22,15,44,20.20
2005,07,22,15,45,20.20
2005,07,22,15,46,20.20
2005,07,22,15,47,20.20
2005,07,22,15,48,20.30
2005,07,22,15,49,20.40
2005,07,22,15,50,20.50
2005,07,22,15,51,20.60
2005,07,22,15,52,20.70
2005,07,22,15,53,20.70
2005,07,22,15,54,20.70
2005,07,22,15,55,20.70
2005,07,22,15,56,20.80
2005,07,22,15,57,20.80
2005,07,22,15,58,20.80
2005,07,22,15,59,20.80
2005,07,22,16,00,20.80
2005,07,22,16,01,20.80
2005,07,22,16,02,20.80
2005,07,22,16,03,20.80
2005,07,22,16,04,20.80
2005,07,22,16,05,20.70
2005,07,22,16,06,20.60
2005,07,22,16,07,20.50
2005,07,22,16,08,20.50
2005,07,22,16,09,20.30
2005,07,22,16,10,20.20
2005,07,22,16,11,20.20
2005,07,22,16,12,20.20
2005,07,22,16,13,20.20
2005,07,22,16,14,20.20
2005,07,22,16,15,20.20
2005,07,22,16,16,20.20
2005,07,22,16,17,20.20
2005,07,22,16,18,20.10
2005,07,22,16,19,19.90
2005,07,22,16,20,19.80
2005,07,22,16,21,19.70
2005,07,22,16,22,19.70
2005,07,22,16,23,19.80
2005,07,22,16,24,19.80
2005,07,22,16,25,19.90
2005,07,22,16,26,19.90
2005,07,22,16,27,20.10
2005,07,22,16,28,20.20
2005,07,22,16,29,20.20
2005,07,22,16,30,20.10
2005,07,22,16,31,20.00
2005,07,22,16,32,19.90
2005,07,22,16,33,19.90
2005,07,22,16,34,19.80
2005,07,22,16,35,19.80
2005,07,22,16,36,19.70
2005,07,22,16,37,19.70
2005,07,22,16,38,19.70
2005,07,22,16,39,19.70
2005,07,22,16,40,19.70
2005,07,22,16,41,19.70
2005,07,22,16,42,19.60
2005,07,22,16,43,19.50
2005,07,22,16,44,19.50
2005,07,22,16,45,19.60
2005,07,22,16,46,19.60
2005,07,22,16,47,19.70
2005,07,22,16,48,19.70
2005,07,22,16,49,19.70
2005,07,22,16,50,19.70
2005,07,22,16,51,19.70
2005,07,22,16,52,19.80
2005,07,22,16,53,19.90
2005,07,22,16,54,20.00
2005,07,22,16,55,20.10
2005,07,22,16,56,20.20
2005,07,22,16,57,20.20
2005,07,22,16,58,20.20
2005,07,22,16,59,20.20
2005,07,22,17,00,20.30
2005,07,22,17,01,20.30
2005,07,22,17,02,20.30
2005,07,22,17,03,20.30
2005,07,22,17,04,20.30
2005,07,22,17,05,20.30
2005,07,22,17,06,20.40
2005,07,22,17,07,20.50
2005,07,22,17,08,20.50
2005,07,22,17,09,20.50
2005,07,22,17,10,20.50
2005,07,22,17,11,20.50
2005,07,22,17,12,20.50
2005,07,22,17,13,20.60
2005,07,22,17,14,20.60
2005,07,22,17,15,20.60
2005,07,22,17,16,20.60
2005,07,22,17,17,20.60
2005,07,22,17,18,20.60
2005,07,22,17,19,20.60